Physics Demonstration Requests

Requested Date: Time: Room: Name: PIRA: Demo:
Tue, 04/16/2024 12:30 pm 234 Brooke Cranswick Hester 5G10.99 Ferromagnetic Fluid
Tue, 04/16/2024 12:30 pm 234 Brooke Cranswick Hester 5H10.33 3-D Magnetic Field
Tue, 04/16/2024 12:30 pm 234 Brooke Cranswick Hester 5H40.23 Filament and Magnet with AC
Tue, 04/16/2024 12:30 pm 234 Brooke Cranswick Hester 5H40.10 Force Between Parallel Wires
Thu, 04/11/2024 9:30 am 262 Tonya Coffey 5K40.10 DC Motor
Thu, 04/11/2024 9:30 am 262 Tonya Coffey 5K40.80 Hand Crank Generator
Fri, 04/19/2024 1:00 am 262 Brad Johnson 2C50.15B, 4E20.40, 3B30.30, 5A50.30, 2C20.31, 1F20.30, 2B30.70
Air Cannon (stage), Balloon in a vacuum, Bell in a vacuum, Van de Graff Generator, Floating Beach Ball, Tablecloth Pull, Vacuum Bazooka
Tue, 04/02/2024 9:30 am 262 Tonya Coffey 5K10.10 Sliding Rail
Tue, 04/02/2024 9:30 am 262 Tonya Coffey 5K10.20 Induction Coil with Magnet, Galvanometer
Tue, 04/02/2024 9:30 am 262 Tonya Coffey 5K10.25 Coil and Magnet, Lamp and Speaker
Tue, 03/26/2024 9:30 am 262 Tonya Coffey 5H20.10 Magnets on a Pivot
Fri, 03/22/2024 11:00 am 307 roshani silwal 6A44.41 Fiber Optics
Thu, 03/21/2024 9:30 am 262 Tonya Coffey 5H40.10 Force Between Parallel Wires
Thu, 03/21/2024 2:00 pm 262 Leah Sherman 5C10.10 Sample Capacitors
Charge and discharge of a capacitor with a lamp
Tue, 03/19/2024 9:30 am 262 Tonya Coffey 5H40.10 Force Between Parallel Wires
Tue, 03/19/2024 9:30 am 262 Tonya Coffey 5H40.23 Filament and Magnet with AC
Tue, 03/19/2024 9:30 am 262 Tonya Coffey 5H30.10 Cathode Ray Tube
Mon, 03/04/2024 10:00 am 262 Tonya Coffey 5H10.20 Oersted's Effect
Mon, 03/04/2024 10:00 am 262 Tonya Coffey 5H10.22 Oersted With Multiple Compasses
Mon, 03/04/2024 10:00 am 262 Tonya Coffey 5H10.30 Magnet and Iron Filings
Thu, 02/29/2024 12:30 pm 243 Brooke Cranswick Hester 5A20.10 Rods and Pivot
Thu, 02/29/2024 12:30 pm 243 Brooke Cranswick Hester 5A10.37 Electrostatic Rod and Cloth
Thu, 02/29/2024 12:30 am 243 Brooke Cranswick Hester 5B20.35 Radio in a Cage
Thu, 02/29/2024 12:30 pm 243 Brooke Cranswick Hester 5A40.40 Deflection of a Water Stream
Thu, 02/29/2024 12:30 am 243 Brooke Cranswick Hester 5A40.30 Electrostatic 2" X 4"
Thu, 02/29/2024 9:30 am 262 Tonya Coffey 5F30.10 Capacitor and Light Bulb
Thu, 02/29/2024 9:30 am 262 Tonya Coffey 5F20.10 Kirchoff's Voltage Law
Fri, 02/23/2024 11:00 am 307 roshani silwal 3B30.30 Bell in a Vacuum
Fri, 02/23/2024 11:00 am 307 roshani silwal 3C20.10 Range of Hearing
Fri, 02/23/2024 11:00 am 307 roshani silwal 3B10.20 Slinky on the Table
Mon, 02/19/2024 10:00 am 262 Tonya Coffey 5C10.10 Sample Capacitors
Mon, 02/19/2024 10:00 am 262 Tonya Coffey 5C10.00 Theremin
Mon, 02/19/2024 10:00 am 262 Tonya Coffey 5C30.20 Short a Capacitor
Wed, 02/14/2024 12:30 pm Violet Hudson 1D50.40 Pail Of Water (with string-supported plate)
Mon, 02/12/2024 10:00 am GWH 150 Anton Kananovich 1D60.20 Simultaneous Fall
Fri, 02/09/2024 11:00 am 307 roshani silwal 5K20.25 Eddy Current Pipe
Fri, 02/09/2024 11:00 am 307 roshani silwal 5H30.10 Cathode Ray Tube
Fri, 02/09/2024 11:00 am 307 roshani silwal 5H10.30 Magnet and Iron Filings
Fri, 02/09/2024 11:00 am 307 roshani silwal 5H15.40 Solenoid and Iron Filings
Mon, 02/12/2024 10:00 am 262 Tonya Coffey 5B10.15 Van de Graff Streamers
Mon, 02/12/2024 10:00 am 262 Tonya Coffey 5B20.35 Radio in a Cage
Mon, 01/29/2024 10:00 am 262 Tonya Coffey 5B10.30A Electric Chimes (classroom)
Mon, 01/22/2024 10:00 am 262 Tonya Coffey 5B10.40 Electric Field
Fri, 12/01/2023 11:00 am 150 Brad Johnson 6A42.10 Blackboard Optics - Refraction
Fri, 12/01/2023 10:00 am GWH 150 Anton Kananovich 1Q50.20 Bicycle Wheel Gyro
Fri, 12/01/2023 10:00 am GWH 150 Anton Kananovich 1Q40.30 Rotating Stool And Bicycle Wheel
Fri, 12/01/2023 10:00 am GWH 150 Anton Kananovich 1Q40.10 Rotating Stool And Weights
Wed, 11/29/2023 11:00 am 150 Brad Johnson 6A42.20, 6A44.41, 6A44.42, Fiber Optic Lamp Refraction Tank, Fiber Optics, Fiberscope, Fiber Optic Lamp
Tue, 11/28/2023 9:30 am 262 Tonya Coffey 1Q40.30 Rotating Stool And Bicycle Wheel
Tue, 11/28/2023 9:30 am 262 Tonya Coffey 1Q40.10 Rotating Stool And Weights